408P/Novichonok-Gerke (2022)

Japanese version
Home page
Updated on September 18, 2021

---------------------------------------------------------------------

* Profile

Designation 408P/2020 M7
Recovery Date June 20, 2020
Magnitude 21.9 mag
Recoverer Pan-STARRS 1 telescope (Haleakala)

* Pictures

* Orbital Elements

Epoch 2022 Sept. 18.0 TT = JDT 2459840.5
T 2022 Oct. 5.03739 TT                                  Rudenko
q   3.4675219            (2000.0)            P               Q
n   0.09538044     Peri.  226.45435     +0.56742516     -0.82162805
a   4.7442020      Node   189.44114     +0.81817118     +0.57002130
e   0.2691032      Incl.   19.35689     +0.09286873     -0.00175054
P  10.3
From 472 observations 2011 Sept. 7-2021 July 14, mean residual 0".8.

* Magnitudes Graph

        m1 = 10.0 + 5 log d + 10.0 log r

---------------------------------------------------------------------

The orbital elements are published on M.P.E.C. 2021-O56.
The magnitudes graphs are made with Comet for Windows.

---------------------------------------------------------------------

Copyright(C) Seiichi Yoshida (comet@aerith.net). All rights reserved.